[[{"header":{"parameterUnit":"m.s-1","parameterCategory":1,"la1":30.2991,"la2":30.254,"lo1":-89.0895,"lo2":-89.0444,"dy":0.0017,"dx":0.0017,"nx":28,"ny":28,"refTime":"2024-04-10T09:00:00:Z","depth":0,"parameterNumber":2,"parameterNumberName":"U-component_of_WINDS"},"data":[0,0,0,0,0,0,0,0,0,0,0,0,0,0,0,0,0,0,0,0,0,0,0,0,0,0,0,0,0,0,0,0,0,0,0,0,0,0,0,0,0,0,0,0,0,0,0,0,0,0,0,0,0,0,0,0,0,0,6.5338,6.534,0,6.5502,6.5504,6.5506,6.5447,6.5443,6.544,6.5436,6.5607,6.5615,6.5623,0,0,0,0,0,0,0,0,0,0,0,0,0,6.4974,6.4981,6.5338,6.534,6.5342,6.5502,6.5504,6.5507,6.5448,6.5443,6.5439,6.5434,6.5605,6.5614,6.5624,0,0,0,0,0,0,0,0,0,0,0,0,0,6.5135,6.4983,6.5338,6.5332,6.5333,6.5502,6.5504,6.5507,6.5449,6.5443,6.5438,6.5432,6.5601,6.5613,6.5625,6.581,0,0,6.5662,6.5667,0,0,0,0,0,0,0,0,6.5126,6.5148,6.5331,6.5333,6.5334,6.5448,6.5439,6.5609,6.545,6.5405,6.5436,6.543,6.5559,6.5574,6.5617,6.5818,6.5825,6.5663,6.567,6.5675,6.5678,0,0,0,0,0,0,0,6.5115,6.5141,6.5403,6.5333,6.5336,6.5321,6.5338,6.5471,6.5511,6.5408,6.5404,6.5425,6.5559,6.5606,6.5621,6.5828,6.5662,6.5673,6.568,6.5685,6.6186,6.6191,0,0,0,0,0,0,6.5102,6.5132,6.5398,6.5408,6.5214,6.5332,6.5351,6.5417,6.5509,6.5518,6.5429,6.5421,6.5588,6.5607,6.5627,6.5847,6.5675,6.5686,6.5693,6.618,6.6187,6.6193,0,0,0,0,0,0,6.5095,6.5127,6.5391,6.5269,6.5301,6.5345,6.542,6.5424,6.547,6.5525,6.5532,6.5469,6.5584,6.561,6.5764,6.5852,6.5692,6.5702,6.6172,6.6182,6.619,6.6291,0,0,0,0,0,0,6.5085,6.5124,6.5195,6.5271,6.5308,6.5526,6.5425,6.5431,6.5491,6.5482,6.5565,6.5573,6.5582,6.5746,6.5776,6.5866,6.5712,6.6165,6.6177,6.6187,6.628,6.6302,6.6321,0,0,0,0,0,6.5072,6.5218,6.5199,6.5231,6.5397,6.5531,6.5552,6.5559,6.5498,6.5569,6.5604,6.5571,6.5838,6.5763,6.5795,6.589,6.6159,6.6173,6.6186,6.627,6.6298,6.6321,0,0,0,0,0,0,6.5152,6.5228,6.5207,6.5382,6.545,6.5521,6.5611,6.5588,6.5675,6.5664,6.5668,6.5688,6.5846,6.5884,6.5798,6.6073,6.5989,6.601,6.6042,6.6069,6.6089,6.6076,6.5722,0,0,0,0,0,6.519,6.5292,6.5352,6.5501,6.5536,6.5568,6.5626,6.5625,6.5696,6.5725,6.5771,6.5842,6.5942,6.6008,6.6103,6.6285,6.6301,6.6367,6.6387,6.6404,6.6422,6.6519,6.6548,6.6239,6.6238,6.6238,0,0,6.527,6.5323,6.5388,6.5518,6.5571,6.5676,6.5592,6.5708,6.5786,6.5743,6.589,6.5927,6.6006,6.6175,6.6251,6.6211,6.6511,6.6422,6.6435,6.6443,6.6536,6.6565,6.6591,6.6248,6.6246,6.6245,0,0,6.5468,6.552,6.5648,6.5702,6.5782,6.5802,6.5833,6.5906,6.5928,6.6076,6.6046,6.6139,6.6311,6.6368,6.642,6.6638,6.661,6.6669,6.6778,6.6873,6.6897,6.6919,6.6995,6.7022,6.6687,6.6687,6.6688,0,6.5557,6.5713,6.5717,6.5834,6.5891,6.5856,6.5986,6.6038,6.6146,6.6187,6.614,6.6354,6.6405,6.6586,6.6639,6.6682,6.6717,6.6659,6.6893,6.6915,6.6935,6.7008,6.7036,6.6694,6.6693,6.6692,6.6692,0,6.5818,6.5927,6.6021,6.6124,6.6192,6.6315,6.6337,6.6406,6.6399,6.6423,6.6574,6.6634,6.6739,6.6782,6.6777,6.6962,6.6934,6.6891,6.6807,6.6971,6.7039,6.7067,6.6703,6.6701,6.6699,6.6697,0,0,6.6071,6.6173,6.6208,6.6253,6.6338,6.6423,6.6544,6.6646,6.6704,6.678,6.688,6.7026,6.6986,6.7044,6.7045,6.7129,6.7295,6.7075,6.7077,6.7112,6.75,6.7531,6.7563,6.7278,6.7283,6.7287,6.7493,0,6.6275,6.6486,6.6491,6.6685,6.6784,6.6752,6.6857,6.6921,6.6947,6.7036,6.7065,6.7168,6.7108,6.7142,6.7224,6.7258,6.7373,6.7243,6.7371,6.7375,6.735,6.7599,6.7633,6.7824,6.752,6.7524,6.7528,0,6.654,6.6622,6.6825,6.6894,6.6936,6.703,6.7123,6.7209,6.728,6.7293,6.7358,6.7346,6.7469,6.7382,6.7551,6.7463,6.7515,6.754,6.7548,6.7559,6.746,6.7615,6.7885,6.7913,6.757,6.7567,6.7563,0,6.6702,6.6863,6.7005,6.7045,6.713,6.7196,6.7235,6.7301,6.7361,6.7443,6.7482,6.7577,6.7629,6.7703,6.7717,6.7653,6.7887,6.7801,6.79,6.79,6.795,6.7946,6.823,6.7987,6.7986,6.7986,6.7985,0,6.6927,6.7052,6.7078,6.7165,6.7304,6.7309,6.7446,6.748,6.7538,6.7631,6.761,6.7698,6.7712,6.7803,6.7815,6.7952,6.7976,6.799,6.7991,6.7991,6.7989,6.8024,6.801,6.7993,6.7992,6.799,6.7989,0,6.7131,6.7154,6.7305,6.7373,6.7392,6.7491,6.7549,6.7632,6.7655,6.7773,6.7801,6.7838,6.7944,6.7965,6.8091,6.8099,6.8262,6.8251,6.8237,6.8235,6.8332,6.8322,6.8648,6.869,6.8421,6.8423,6.8425,0,6.7273,6.7368,6.7444,6.7504,6.7546,6.7643,6.7704,6.7713,6.7777,6.7864,6.7937,6.804,6.8122,6.8293,6.8331,6.8427,6.8417,6.8525,6.8432,6.8427,6.8417,6.841,6.8419,6.8542,6.8545,6.8547,6.8549,0,6.7521,6.7527,6.7615,6.7707,6.7779,6.7852,6.7922,6.7972,6.7991,6.8064,6.8171,6.8235,6.8362,6.8464,6.856,6.8599,6.8578,6.8578,6.8606,6.8606,6.8593,6.8599,6.8283,6.8571,6.8569,6.8567,6.8566,6.8565,6.7696,6.7778,6.7844,6.7943,6.7996,6.8061,6.8141,6.8174,6.8263,6.8366,6.8366,6.8483,6.8551,6.8676,6.8722,6.8813,6.8779,6.882,6.883,6.8839,6.8847,6.858,6.8831,6.883,6.883,6.8829,6.8829,0,6.7941,6.7982,6.8072,6.8169,6.8246,6.8218,6.8293,6.8359,6.8462,6.8527,6.8608,6.873,6.8829,6.8874,6.8972,6.9036,6.9028,6.9061,6.9055,6.9065,6.8873,6.8838,6.9065,6.9065,6.9065,6.9065,6.9065,6.9065,6.8078,6.8214,6.8228,6.839,6.843,6.8543,6.8588,6.8647,6.8698,6.8835,6.8917,6.8945,6.9002,6.9103,6.9192,6.9203,6.9239,6.9277,6.9283,6.9102,6.9078,6.9055,6.9023,6.9285,6.9285,6.9466,6.9468,6.9469]},{"header":{"parameterUnit":"m.s-1","parameterCategory":1,"la1":30.2991,"la2":30.254,"lo1":-89.0895,"lo2":-89.0444,"dy":0.0017,"dx":0.0017,"nx":28,"ny":28,"refTime":"2024-04-10T09:00:00:Z","depth":0,"parameterNumber":3,"parameterNumberName":"V-component_of_WINDS"},"data":[0,0,0,0,0,0,0,0,0,0,0,0,0,0,0,0,0,0,0,0,0,0,0,0,0,0,0,0,0,0,0,0,0,0,0,0,0,0,0,0,0,0,0,0,0,0,0,0,0,0,0,0,0,0,0,0,0,0,6.5476,6.5477,0,6.5576,6.5577,6.5578,6.5526,6.5524,6.5521,6.5518,6.5615,6.562,6.5625,0,0,0,0,0,0,0,0,0,0,0,0,0,6.5236,6.524,6.5476,6.5477,6.5478,6.5575,6.5577,6.5578,6.5527,6.5523,6.552,6.5517,6.5614,6.5619,6.5626,0,0,0,0,0,0,0,0,0,0,0,0,0,6.5338,6.5242,6.5476,6.5464,6.5464,6.5575,6.5577,6.5578,6.5527,6.5523,6.5519,6.5516,6.5612,6.5619,6.5626,6.5752,0,0,6.5649,6.5653,0,0,0,0,0,0,0,0,6.5332,6.5347,6.5465,6.5465,6.5466,6.5534,6.5527,6.5636,6.5528,6.5503,6.5518,6.5514,6.5591,6.56,6.5627,6.5757,6.5761,6.565,6.5655,6.5658,6.566,0,0,0,0,0,0,0,6.5325,6.5342,6.5515,6.5467,6.5467,6.5453,6.5463,6.5548,6.5568,6.5505,6.5502,6.5514,6.5591,6.562,6.5629,6.5762,6.565,6.5657,6.5661,6.5664,6.5998,6.6002,0,0,0,0,0,0,6.5319,6.5337,6.5512,6.5518,6.5388,6.546,6.5472,6.5516,6.5567,6.5571,6.5518,6.5512,6.5609,6.562,6.5632,6.5782,6.5658,6.5665,6.5669,6.5994,6.5999,6.6004,0,0,0,0,0,0,6.5314,6.5336,6.5508,6.5427,6.5447,6.5469,6.5519,6.552,6.555,6.5577,6.5579,6.5545,6.5607,6.5622,6.5723,6.5785,6.5668,6.5675,6.5989,6.5996,6.6002,6.6084,0,0,0,0,0,0,6.5308,6.5334,6.5383,6.5428,6.5452,6.5599,6.5523,6.5525,6.5564,6.5557,6.5603,6.5606,6.5605,6.5712,6.573,6.5793,6.5681,6.5983,6.5992,6.6,6.6076,6.6092,6.6107,0,0,0,0,0,6.5299,6.5401,6.5386,6.5408,6.5514,6.5602,6.5616,6.5613,6.5569,6.5618,6.5635,6.5605,6.5775,6.5723,6.5743,6.5809,6.5979,6.5989,6.5999,6.6069,6.6089,6.6106,0,0,0,0,0,0,6.5362,6.5407,6.5391,6.5511,6.5553,6.5593,6.5655,6.5635,6.569,6.5681,6.5674,6.5684,6.5789,6.5809,6.575,6.5933,6.587,6.5885,6.5916,6.5936,6.5951,6.5944,6.5687,0,0,0,0,0,6.539,6.5459,6.5494,6.5597,6.5619,6.5634,6.5672,6.5666,6.5709,6.5727,6.5751,6.5792,6.5855,6.5897,6.5956,6.6078,6.6087,6.6134,6.6149,6.6162,6.6174,6.624,6.6261,6.6036,6.6036,6.6036,0,0,6.5447,6.5481,6.5525,6.561,6.5642,6.5713,6.5649,6.5726,6.5778,6.5738,6.5835,6.5854,6.59,6.6012,6.6063,6.6032,6.6238,6.6174,6.6184,6.619,6.6252,6.6273,6.6292,6.6043,6.6042,6.604,0,0,6.5589,6.5622,6.5711,6.5745,6.5795,6.5804,6.5826,6.5869,6.5881,6.5979,6.5951,6.6011,6.6119,6.6153,6.6184,6.6339,6.6313,6.6358,6.6439,6.6503,6.6521,6.6536,6.6591,6.661,6.637,6.6371,6.6371,0,6.5654,6.5761,6.5758,6.5839,6.5876,6.5845,6.5934,6.5966,6.6033,6.6059,6.6024,6.616,6.6188,6.6307,6.6345,6.6372,6.6395,6.6353,6.6519,6.6534,6.6549,6.66,6.6621,6.6376,6.6375,6.6375,6.6374,0,6.5838,6.5913,6.5978,6.6045,6.609,6.6174,6.6183,6.6228,6.6219,6.6231,6.633,6.6364,6.6429,6.6457,6.6448,6.6575,6.6554,6.6519,6.6456,6.6575,6.6624,6.6644,6.6383,6.6381,6.638,6.6378,0,0,6.6021,6.6087,6.6111,6.6141,6.6194,6.6251,6.6332,6.6398,6.6437,6.6484,6.6551,6.6644,6.6612,6.6648,6.6642,6.6698,6.6818,6.6656,6.6657,6.6684,6.6959,6.6985,6.7008,6.6801,6.6805,6.6808,6.6955,0,6.6166,6.6312,6.6312,6.6445,6.6513,6.6485,6.6556,6.6595,6.6609,6.6667,6.6681,6.6747,6.67,6.6721,6.6775,6.6792,6.6872,6.6781,6.6862,6.6865,6.6851,6.7033,6.7061,6.7198,6.6974,6.6977,6.6979,0,6.6355,6.641,6.6551,6.6594,6.6623,6.6687,6.6747,6.6804,6.6847,6.6853,6.6893,6.6879,6.696,6.6895,6.7006,6.6944,6.6977,6.699,6.6995,6.7002,6.6929,6.7044,6.7242,6.7262,6.7009,6.7007,6.7005,0,6.6474,6.6583,6.6681,6.6708,6.6761,6.6807,6.6831,6.6871,6.691,6.6962,6.6987,6.7047,6.708,6.7126,6.7127,6.708,6.7239,6.7174,6.7245,6.7245,6.7279,6.7277,6.7484,6.7302,6.7301,6.7301,6.7301,0,6.6635,6.6722,6.6735,6.6796,6.6892,6.689,6.6985,6.7005,6.7041,6.7103,6.7081,6.7139,6.7138,6.7197,6.7199,6.729,6.7305,6.7311,6.731,6.7313,6.7312,6.7334,6.7324,6.7306,6.7305,6.7304,6.7303,0,6.6784,6.6797,6.6902,6.6944,6.6957,6.7026,6.7061,6.7118,6.7129,6.7209,6.7227,6.7245,6.7313,6.7319,6.7398,6.7399,6.751,6.7499,6.7496,6.7494,6.7564,6.7557,6.7791,6.7822,6.762,6.7622,6.7624,0,6.6886,6.6953,6.7003,6.7044,6.7071,6.7138,6.7178,6.7179,6.7222,6.7276,6.7326,6.7393,6.7446,6.7557,6.7575,6.7635,6.7625,6.7703,6.7634,6.7634,6.7625,6.7621,6.7627,6.7716,6.7719,6.772,6.7722,0,6.7066,6.7069,6.7129,6.7192,6.7242,6.7291,6.7336,6.7371,6.7377,6.7426,6.7496,6.7538,6.7619,6.7685,6.7744,6.7766,6.7745,6.7744,6.7763,6.7766,6.7762,6.7764,6.7532,6.7738,6.7737,6.7735,6.7734,6.7734,6.7194,6.7252,6.7296,6.7364,6.7399,6.7442,6.7498,6.7517,6.7577,6.7644,6.7641,6.7718,6.7759,6.7837,6.7864,6.7923,6.7897,6.7925,6.7932,6.7939,6.7946,6.7753,6.7934,6.7933,6.7933,6.7932,6.7932,0,6.7371,6.7399,6.7462,6.7527,6.7581,6.7558,6.7607,6.7653,6.7722,6.7763,6.7817,6.7897,6.7961,6.7986,6.8047,6.809,6.8082,6.8107,6.8103,6.8108,6.7966,6.7943,6.8112,6.8112,6.8112,6.8112,6.8112,6.8112,6.747,6.7567,6.7575,6.7688,6.7715,6.7792,6.7823,6.7862,6.7895,6.7987,6.8041,6.8056,6.809,6.8155,6.8212,6.8217,6.824,6.8269,6.827,6.8137,6.8118,6.8101,6.8079,6.8274,6.8274,6.8407,6.8408,6.8409]}]]